Location: Central Falls
(41.8900°N, 71.3929°W)
Time: 13:09:51
(UTC+00:00)

A-11 Canister half - Pass Details

Date: 07 December 2023
Orbit: 1512 x 1687 km, 47.2° (Epoch: 20 February)

Event Time Altitude Azimuth Distance (km) Brightness Sun altitude
Rises 02:56:04 0° 206° (SSW) 4,671 - -61.4°
Reaches altitude 10° 02:59:20 10° 199° (SSW) 3,709 - -61.9°
Maximum altitude 03:07:46 39° 134° (SE) 2,207 - -63.2°
Drops below altitude 10° 03:16:31 10° 70° (ENE) 3,844 - -64.4°
Sets 03:19:56 0° 64° (ENE) 4,858 - -64.9°
